Wetter in Frankfurt (Oder) Es liegt eine Wetterwarnung vor!

Frankfurt (Oder) - Jahresübersicht

Sämtliche in den einzelnen Jahren erfasste und berechnete Messwerte unserer Wetterstation in Frankfurt (Oder) werden hier angezeigt. Per Touch oder MouseOver auf das entsprechende Datenfeld kann man sich Datum und Uhrzeit des jeweiligen Extremwerts anzeigen lassen.

Frankfurt (Oder) - Temperatur / Luftfeuchte in den Jahren

Jahr → 2019 2020 2021 2022
Höchsttemperatur 

in °C

7.4
24.12.2019

13:25 Uhr

35.4
09.08.2020

13:10 Uhr

35.4
20.06.2021

13:35 Uhr

12.3
01.01.2022

11:45 Uhr

Tiefsttemperatur 

in °C

-2.1
29.12.2019

06:00 Uhr

-6.3
24.03.2020

05:55 Uhr

-14.1
10.02.2021

22:50 Uhr

-5.6
11.01.2022

08:45 Uhr

Temperatur (Ø)

in °C

0.0 11.0 9.8 2.7
Temp.-Abweichung

in °C

-9,2 +1,8 +0,6 -6,5
Gef. Temp (min.) 

in °C

-3.2
30.12.2019

06:20 Uhr

-10.5
02.12.2020

23:15 Uhr

-21.9
08.02.2021

06:15 Uhr

-9.2
09.01.2022

07:30 Uhr

Luftfeuchte (max.)

in %

92.0
23.12.2019

10:10 Uhr

100.0
09.01.2020

11:30 Uhr

97.0
03.01.2021

05:55 Uhr

95.0
01.01.2022

03:10 Uhr

Luftfeuchte (min.)

in %

37.0
30.12.2019

23:50 Uhr

22.0
06.04.2020

17:05 Uhr

13.0
10.03.2021

14:10 Uhr

63.0
06.01.2022

13:05 Uhr

Luftfeuchte (Ø)

in %

0.0 75.5 75.2 87.5

Frankfurt (Oder) - Niederschlag / Wind in den Jahren

Jahr → 2019 2020 2021 2022
Niederschlag 

in mm

7.2 490.8 607.4 20.8
R.-Abweichung

in mm

-568,8 -85,2 +31,4 -555,2
Niederschlag (max)

am Tag in mm

3.2
26.12.2019
44.6
26.09.2020
83.6
23.08.2021
6.2
17.01.2022
Regenrate (max.)

in mm/m²/h

4.8
26.12.2019

18:20 Uhr

64.8
01.07.2020

22:15 Uhr

79.2
30.06.2021

12:30 Uhr

7.2
17.01.2022

11:00 Uhr

Windrichtung (Ø)
Windstärke (Ø)

in km/h

0.0 7.0 6.4 7.8
Windstärke (Ø)

in Bft

0 1 1 2
Windböe (max.)

in km/h

32.2
30.12.2019

20:45 Uhr

69.2
13.03.2020

13:20 Uhr

83.7
02.12.2021

00:15 Uhr

59.5
03.01.2022

06:40 Uhr

Windböe (max.)

in Bft

5 8 9 7

Frankfurt (Oder) - Luftdruck / Taupunkt / Sonne in den Jahren

Jahr → 2019 2020 2021 2022
Luftdruck (max.)

in hPa

1042.2
28.12.2019

22:20 Uhr

1045.5
20.01.2020

11:05 Uhr

1043.0
14.02.2021

08:35 Uhr

1037.7
11.01.2022

21:35 Uhr

Luftdruck (min.)

in hPa

988.7
22.12.2019

07:00 Uhr

983.3
29.12.2020

01:25 Uhr

985.6
01.12.2021

22:45 Uhr

993.2
04.01.2022

16:35 Uhr

Luftdruck (Ø)

in hPa

0.0 1015.5 1016.0 1018.8
Taupunkt (max.)

in °C

5.6
23.12.2019

12:15 Uhr

23.5
13.06.2020

13:55 Uhr

23.1
17.07.2021

14:40 Uhr

10.7
01.01.2022

03:15 Uhr

Taupunkt (min.) 

in °C

-8.8
30.12.2019

23:50 Uhr

-11.3
22.03.2020

15:30 Uhr

-19.2
10.03.2021

14:10 Uhr

-7.4
11.01.2022

08:30 Uhr

Solar (max.)

in W/m²

236
29.12.2019
1185
17.06.2020
1167
03.07.2021
415
20.01.2022
Solar (Ø)

in W/m²

55. 218 206 79.
Sonnenscheindauer

in hh:mm

6:0 1700:50 1548:35 35:50

Frankfurt (Oder) - Verdunstung / Warnindizes in den Jahren

Jahr → 2019 2020 2021 2022
Verdunstung (max.)

am Tag in mm

1.042
30.12.2019
6.020
01.06.2020
7.620
18.06.2021
0.762
03.01.2022
Verdunstung

in mm

2.997 805.913 747.771 8.582
UV-Index (max.) 0.5 7.7 6.7 0.8
GWI (max.) 0 11 11 2

Legende: GWI = Gewitterindex